FALCON 9 DEB (48698 NORAD) Tracking and Keplerian Element Data

This shows tracking and keplerian element data for the satellite.

Feedback or suggestion? Click here.




ElementValue
Catalog48698
NameFALCON 9 DEB
Epoch Orbit545
Epoch Day180.58601744
Epoch Year2021
RAAN248.8998
Inclination53.0382
Eccentricity0.0009498
Argument of Perigee309.4561
Mean Anonmoly50.5646
Mean Motion16.42830863
Decay Rate0.05967621
L11 48698U 21044BN 21180.58601744 .05967621 12519-4 25372-3 0 9993
L22 48698 53.0382 248.8998 0009498 309.4561 50.5646 16.42830863 5455

Live tracking and technical data element details for FALCON 9 DEB (NORAD 48698). FALCON 9 DEB can be tracked NOW for your location showing map with azimuth and elevation plus other details from your city location.

Track the satellite on the map from your city or location and see movement details for azimuth, elevation, latitude, longitude, range, height, and movement on the map or in text.







IsCatalogInMostPopularTable: catalog: 48698, numindb: 14
Update: records affected: 1



GetName: 48698 FALCON 9 DEB

Hit Count: updated at: Tue, 03 Aug 2021 23:23:47 GMT